Location: Hillern
(53.0557°N, 9.8577°E)
Time: 06:35:33
(UTC+00:00)

USA 229 DEB - Pass Details

Date: 19 May 2025
Orbit: 872 x 1339 km, 63.4° (Epoch: 20 June)

Event Time Altitude Azimuth Distance (km) Brightness Sun altitude
Exits shadow 23:20:43 23° 206° (SSW) 1,892 4.5 -17.0°
Maximum altitude 23:24:41 67° 129° (SE) 1,077 3.6 -16.9°
Drops below altitude 10° 23:31:30 10° 49° (NE) 2,940 6.6 -16.9°
Sets 23:34:20 0° 47° (NE) 3,973 7.4 -16.9°
